STARLINK-32855, 62813

Orbit data source: Space-Track

STARLINK-32855, 62813 is a payload satellite owned by SpaceX/Seattle (US) in LEO that was launched on Fri, 24 Jan 2025 UTC via an FALCON 9 launch vehicle from the Air Force Western Test Range (AFWTR). Payload-class satellites include a variety of spacecraft equipped with specific instruments for various scientific and technological missions. These include communications satellites like Starlink; space stations such as the ISS; scientific satellites like the Hubble; Earth observation satellites from companies like Planet Labs, Umbra, and HawkEye 360; GPS; miniature CubeSats for education and research; and military/defense satellites.

Loading next visibility...
Identifier
62813, 2025-018H
Orbit
LEO
Last TLE update
8 hours ago
Origin
Manufacturer
SpaceX/Seattle
Mission
Operational Commercial Communications
Bus & Motor
STARLINK V2M, Unknown motor
Mass
730 kg wet, ~700 kg dry
Launch date (UTC)
2025-01-24 (5 months ago)
Launch vehicle
FALCON 9
Launch site
Air Force Western Test Range (AFWTR)
Object type
Payload
Rocket body
Debris
Shape & HBR
Box + 2 Pan, 29 m
Radar Cross Section
33.884 m², Large (>1 m²)

Expand to show TLE details & history

TLE from 8 hours ago
0 STARLINK-32855
1 62813U 25018H   25182.03937922  .00020791  00000-0  71211-3 0  9993
2 62813  53.1581  38.2046 0001804  37.1191 322.9934 15.30201286 25550
Epoch: 2025-07-01T00:56Z
TLE epoch observation values (Epoch: 2025-07-01T00:56:42.364Z)
Latitude
-0.00005°
Longitude
104.68749°
Altitude
475.124 km
Speed
7.63 km/s
True Right ascension
02h 32m 49s
True Declination
0° 00' 00"
Sunlit
Object was in daylight at epoch
Visualization orbit readout
Latitude
-35.23466°
Longitude
71.454°
Altitude
486.257 km
Speed
7.622 km/s
Apparent Right ascension
03h 50m 32s
Apparent Declination
-55° 53' 48"
Sunlit
Object is in daylight
Visualization observer readout
Local Sidereal Time
20:13:06
Azimuth
133.617° SE
Elevation
-45.127°
Doppler factor
1
Orbital elements
Apogee altitude
476.704 km
Perigee altitude
474.232 km
Semi-major axis
6,853.605 km
Eccentricity
0.00018
Inclination
53.1581°
RAAN
38.2046°
Arg. of periapsis
37.1191°
True anomaly
Unknown
Mean anomaly
322.9934°
Eccentric anomaly
Unknown
Mean motion
3.82529 °/min
Orbital period
94.11 mins
BSTAR
0.00071211
Loading maneuver chart data...
Loading SW <> Apogee altitude chart data...
Loading historical data...
Loading historical data...
Loading historical data...
Loading historical data...
Loading historical data...
Loading historical data...
Loading historical data...

STARLINK-32855 Visibility forecast

Observer location: undefined°, undefined°

Span
Click to sort rows by Start time (UTC) header in descending order
Start Az.
Max El. time (UTC)
Max El. Az.
Max El.
End time (UTC)
End Az.
6 mins2025-07-01 16:46:58.317Z209.761° SW2025-07-01 16:49:58.317Z147.192° SSE37.315°2025-07-01 16:52:58.317Z62.741° ENE
4 mins2025-07-01 18:26:58.317Z301.067° NW2025-07-01 18:27:58.317Z325.452° NNW22.381°2025-07-01 18:30:58.317Z26.412° NE
5 mins2025-07-01 23:22:58.317Z330.383° NNW2025-07-01 23:24:58.317Z26.583° NE34.843°2025-07-01 23:27:58.317Z104.703° ESE
|